Time,TemperatureF,DewpointF,PressureIn,WindDirection,WindDirectionDegrees,WindSpeedMPH,WindSpeedGustMPH,Humidity,HourlyPrecipIn,Conditions,Clouds,dailyrainin,SoftwareType,DateUTC
2013-03-13 19:57:00,40.1,24.4,29.12,West,270,1.3,1.3,53,1.41,,---,0.00,VWS V13.01,2013-03-13 23:57:00,
2013-03-13 20:02:00,40.1,24.4,29.12,NNE,22,2.7,2.7,53,1.41,,---,0.00,VWS V13.01,2013-03-14 00:02:00,
2013-03-13 20:04:00,40.1,24.4,29.12,NW,315,2.2,2.5,53,1.41,,---,0.00,VWS V13.01,2013-03-14 00:04:00,
2013-03-13 20:09:00,39.9,24.6,29.12,WNW,292,3.1,3.1,54,1.41,,---,0.00,VWS V13.01,2013-03-14 00:09:00,
2013-03-13 20:10:00,39.9,24.6,29.12,West,270,0.0,2.9,54,1.41,,---,0.00,VWS V13.01,2013-03-14 00:10:00,
2013-03-13 20:14:00,39.9,24.6,29.12,NNE,22,2.0,2.2,54,1.41,,---,0.00,VWS V13.01,2013-03-14 00:14:00,
2013-03-13 20:15:00,39.9,24.6,29.12,WNW,292,2.9,2.9,54,1.41,,---,0.00,VWS V13.01,2013-03-14 00:15:00,
2013-03-13 20:19:00,39.9,24.6,29.12,SW,225,2.7,2.7,54,1.41,,---,0.00,VWS V13.01,2013-03-14 00:19:00,
2013-03-13 20:20:00,39.9,24.6,29.12,West,270,2.0,2.7,54,1.41,,---,0.00,VWS V13.01,2013-03-14 00:20:00,
2013-03-13 20:24:00,39.9,24.6,29.12,SSE,158,2.0,2.0,54,1.41,,---,0.00,VWS V13.01,2013-03-14 00:24:00,
2013-03-13 20:25:00,39.9,24.6,29.12,WSW,248,0.0,2.0,54,1.41,,---,0.00,VWS V13.01,2013-03-14 00:25:00,
2013-03-13 20:26:00,39.9,24.6,29.12,WSW,248,0.0,2.0,54,1.41,,---,0.00,VWS V13.01,2013-03-14 00:26:00,
2013-03-13 20:30:00,39.9,24.6,29.12,SSE,158,0.0,2.7,54,1.41,,---,0.00,VWS V13.01,2013-03-14 00:30:00,
2013-03-13 20:31:00,39.9,24.6,29.12,SSE,158,0.0,2.7,54,1.41,,---,0.00,VWS V13.01,2013-03-14 00:31:00,
2013-03-13 20:32:00,39.9,24.6,29.12,NNW,338,1.6,1.6,54,1.41,,---,0.00,VWS V13.01,2013-03-14 00:32:00,
2013-03-13 20:35:00,39.7,24.9,29.12,West,270,2.5,2.5,55,1.41,,---,0.00,VWS V13.01,2013-03-14 00:35:00,
2013-03-13 20:36:00,39.7,24.9,29.12,SSE,158,0.0,2.5,55,1.41,,---,0.00,VWS V13.01,2013-03-14 00:36:00,
2013-03-13 20:37:00,39.7,24.9,29.12,WSW,248,2.0,2.0,55,1.41,,---,0.00,VWS V13.01,2013-03-14 00:37:00,
2013-03-13 20:38:00,39.7,24.9,29.12,WNW,292,2.2,2.2,55,1.41,,---,0.00,VWS V13.01,2013-03-14 00:38:00,
2013-03-13 20:40:00,39.7,24.9,29.12,West,270,2.0,2.5,55,1.41,,---,0.00,VWS V13.01,2013-03-14 00:40:00,
2013-03-13 20:41:00,39.7,24.9,29.12,West,270,2.0,2.5,55,1.41,,---,0.00,VWS V13.01,2013-03-14 00:41:00,
2013-03-13 20:43:00,39.4,25.0,29.12,WSW,248,1.3,1.3,56,1.41,,---,0.00,VWS V13.01,2013-03-14 00:43:00,
2013-03-13 20:44:00,39.4,25.0,29.12,WNW,292,1.6,1.6,56,1.41,,---,0.00,VWS V13.01,2013-03-14 00:44:00,
2013-03-13 20:46:00,39.4,25.0,29.12,West,270,2.7,2.7,56,1.41,,---,0.00,VWS V13.01,2013-03-14 00:46:00,
2013-03-13 20:47:00,39.4,25.0,29.12,West,270,2.7,2.7,56,1.41,,---,0.00,VWS V13.01,2013-03-14 00:47:00,
2013-03-13 20:48:00,39.4,25.0,29.12,NW,315,2.0,3.1,56,1.41,,---,0.00,VWS V13.01,2013-03-14 00:48:00,
2013-03-13 20:50:00,39.4,25.0,29.12,WNW,292,1.3,2.0,56,1.41,,---,0.00,VWS V13.01,2013-03-14 00:50:00,
2013-03-13 20:51:00,39.4,25.0,29.12,West,270,1.3,1.3,56,1.41,,---,0.00,VWS V13.01,2013-03-14 00:51:00,
2013-03-13 20:52:00,39.4,25.0,29.12,WNW,292,1.1,1.1,56,1.41,,---,0.00,VWS V13.01,2013-03-14 00:52:00,
2013-03-13 20:53:00,39.4,25.0,29.12,WNW,292,1.1,1.1,56,1.41,,---,0.00,VWS V13.01,2013-03-14 00:53:00,
2013-03-13 20:55:00,39.4,25.0,29.12,SSW,202,3.1,3.1,56,1.41,,---,0.00,VWS V13.01,2013-03-14 00:55:00,
2013-03-13 20:56:00,39.4,25.0,29.12,WSW,248,0.0,0.0,56,1.41,,---,0.00,VWS V13.01,2013-03-14 00:56:00,
2013-03-13 20:57:00,39.4,25.0,29.12,WSW,248,1.3,1.3,56,1.41,,---,0.00,VWS V13.01,2013-03-14 00:57:00,
2013-03-13 20:58:00,38.1,24.7,29.12,West,270,0.9,2.5,58,0.00,,---,0.00,VWS V13.01,2013-03-14 00:58:00,
2013-03-13 21:00:00,38.1,24.7,29.12,West,270,2.7,2.7,58,0.00,,---,0.00,VWS V13.01,2013-03-14 01:00:00,
2013-03-13 21:02:00,38.1,24.7,29.12,WNW,292,0.0,0.0,58,0.00,,---,0.00,VWS V13.01,2013-03-14 01:02:00,
2013-03-13 21:03:00,38.1,24.7,29.12,WSW,248,2.9,2.9,58,0.00,,---,0.00,VWS V13.01,2013-03-14 01:03:00,
2013-03-13 21:04:00,38.1,24.7,29.12,WSW,248,2.9,2.9,58,0.00,,---,0.00,VWS V13.01,2013-03-14 01:04:00,
2013-03-13 21:05:00,38.1,24.7,29.12,WSW,248,0.0,2.9,58,0.00,,---,0.00,VWS V13.01,2013-03-14 01:05:00,
2013-03-13 21:07:00,38.1,24.7,29.12,WNW,292,0.0,0.0,58,0.00,,---,0.00,VWS V13.01,2013-03-14 01:07:00,
2013-03-13 21:09:00,38.1,24.7,29.12,West,270,0.0,2.2,58,0.00,,---,0.00,VWS V13.01,2013-03-14 01:09:00,
2013-03-13 21:10:00,38.1,24.7,29.12,WNW,292,0.0,0.0,58,0.00,,---,0.00,VWS V13.01,2013-03-14 01:10:00,
2013-03-13 21:12:00,37.6,24.6,29.12,WSW,248,0.0,0.0,59,0.00,,---,0.00,VWS V13.01,2013-03-14 01:12:00,
2013-03-13 21:14:00,37.6,24.6,29.12,NW,315,2.7,2.7,59,0.00,,---,0.00,VWS V13.01,2013-03-14 01:14:00,
2013-03-13 21:18:00,37.4,24.4,29.12,SW,225,0.9,2.5,59,0.00,,---,0.00,VWS V13.01,2013-03-14 01:18:00,
2013-03-13 21:25:00,37.4,24.4,29.12,West,270,1.3,1.3,59,0.00,,---,0.00,VWS V13.01,2013-03-14 01:25:00,
2013-03-13 21:31:00,36.9,24.7,29.12,SW,225,0.0,0.0,61,0.00,,---,0.00,VWS V13.01,2013-03-14 01:31:00,
2013-03-13 21:33:00,36.9,24.7,29.12,SW,225,2.5,2.5,61,0.00,,---,0.00,VWS V13.01,2013-03-14 01:33:00,
2013-03-13 21:35:00,36.9,24.7,29.12,SW,225,0.0,2.5,61,0.00,,---,0.00,VWS V13.01,2013-03-14 01:35:00,
2013-03-13 21:37:00,36.7,24.5,29.12,SSW,202,2.0,2.0,61,0.00,,---,0.00,VWS V13.01,2013-03-14 01:37:00,
2013-03-13 21:38:00,36.7,24.5,29.12,SW,225,2.5,2.9,61,0.00,,---,0.00,VWS V13.01,2013-03-14 01:38:00,
2013-03-13 21:40:00,36.7,24.5,29.12,WNW,292,1.6,2.5,61,0.00,,---,0.00,VWS V13.01,2013-03-14 01:40:00,
2013-03-13 21:41:00,36.7,24.5,29.12,WNW,292,1.6,1.6,61,0.00,,---,0.00,VWS V13.01,2013-03-14 01:41:00,
2013-03-13 21:45:00,36.7,24.5,29.12,West,270,2.5,2.5,61,0.00,,---,0.00,VWS V13.01,2013-03-14 01:45:00,
2013-03-13 21:47:00,36.7,24.5,29.12,West,270,1.1,2.5,61,0.00,,---,0.00,VWS V13.01,2013-03-14 01:47:00,
2013-03-13 21:52:00,36.3,24.6,29.12,West,270,0.0,0.0,62,0.00,,---,0.00,VWS V13.01,2013-03-14 01:52:00,
2013-03-13 21:57:00,36.1,24.4,29.12,West,270,2.9,2.9,62,0.00,,---,0.00,VWS V13.01,2013-03-14 01:57:00,
2013-03-13 21:58:00,36.1,24.8,29.12,SSW,202,1.1,2.9,63,0.00,,---,0.00,VWS V13.01,2013-03-14 01:58:00,
2013-03-13 22:00:00,36.0,24.6,29.12,WSW,248,3.1,3.4,63,0.00,,---,0.00,VWS V13.01,2013-03-14 02:00:00,
2013-03-13 22:03:00,35.8,24.4,29.12,West,270,1.6,1.6,63,0.00,,---,0.00,VWS V13.01,2013-03-14 02:03:00,
2013-03-13 22:08:00,36.0,24.6,29.12,WSW,248,1.6,1.6,63,0.00,,---,0.00,VWS V13.01,2013-03-14 02:08:00,
2013-03-13 22:09:00,36.0,24.6,29.12,WNW,292,0.0,1.6,63,0.00,,---,0.00,VWS V13.01,2013-03-14 02:09:00,
2013-03-13 22:10:00,36.0,24.6,29.12,WSW,248,0.9,0.9,63,0.00,,---,0.00,VWS V13.01,2013-03-14 02:10:00,
2013-03-13 22:13:00,36.0,24.6,29.12,West,270,0.0,1.1,63,0.00,,---,0.00,VWS V13.01,2013-03-14 02:13:00,
2013-03-13 22:15:00,36.0,24.6,29.12,WNW,292,1.3,1.3,63,0.00,,---,0.00,VWS V13.01,2013-03-14 02:15:00,
2013-03-13 22:16:00,36.0,24.6,29.12,West,270,1.3,1.3,63,0.00,,---,0.00,VWS V13.01,2013-03-14 02:16:00,
2013-03-13 22:18:00,35.8,24.8,29.12,SSW,202,0.0,0.0,64,0.00,,---,0.00,VWS V13.01,2013-03-14 02:18:00,
2013-03-13 22:21:00,35.8,24.8,29.12,West,270,3.4,3.4,64,0.00,,---,0.00,VWS V13.01,2013-03-14 02:21:00,
2013-03-13 22:22:00,35.8,24.8,29.12,SW,225,0.9,3.4,64,0.00,,---,0.00,VWS V13.01,2013-03-14 02:22:00,
2013-03-13 22:23:00,35.8,24.8,29.12,SW,225,2.0,2.7,64,0.00,,---,0.00,VWS V13.01,2013-03-14 02:23:00,
2013-03-13 22:26:00,35.8,24.8,29.12,WNW,292,1.1,1.1,64,0.00,,---,0.00,VWS V13.01,2013-03-14 02:26:00,
2013-03-13 22:27:00,35.8,24.8,29.12,WNW,292,1.1,1.1,64,0.00,,---,0.00,VWS V13.01,2013-03-14 02:27:00,
2013-03-13 22:28:00,35.8,24.8,29.12,SSW,202,2.5,2.5,64,0.00,,---,0.00,VWS V13.01,2013-03-14 02:28:00,
2013-03-13 22:29:00,35.8,24.8,29.12,West,270,2.7,2.7,64,0.00,,---,0.00,VWS V13.01,2013-03-14 02:29:00,
2013-03-13 22:32:00,35.8,24.8,29.12,WSW,248,1.6,1.6,64,0.00,,---,0.00,VWS V13.01,2013-03-14 02:32:00,
2013-03-13 22:33:00,35.8,24.8,29.12,WSW,248,1.6,1.6,64,0.00,,---,0.00,VWS V13.01,2013-03-14 02:33:00,
2013-03-13 22:34:00,35.8,24.8,29.12,WSW,248,3.8,3.8,64,0.00,,---,0.00,VWS V13.01,2013-03-14 02:34:00,
2013-03-13 22:37:00,35.8,24.8,29.12,NNW,338,1.1,1.1,64,0.00,,---,0.00,VWS V13.01,2013-03-14 02:37:00,
2013-03-13 22:38:00,35.8,24.8,29.12,West,270,0.0,1.1,64,0.00,,---,0.00,VWS V13.01,2013-03-14 02:38:00,
2013-03-13 22:39:00,35.8,24.8,29.12,WNW,292,0.0,0.0,64,0.00,,---,0.00,VWS V13.01,2013-03-14 02:39:00,
2013-03-13 22:42:00,35.8,24.8,29.12,WSW,248,0.0,0.0,64,0.00,,---,0.00,VWS V13.01,2013-03-14 02:42:00,
2013-03-13 22:43:00,35.8,24.8,29.12,WSW,248,0.0,0.0,64,0.00,,---,0.00,VWS V13.01,2013-03-14 02:43:00,
2013-03-13 22:44:00,35.4,24.8,29.12,SSW,202,3.4,3.4,65,0.00,,---,0.00,VWS V13.01,2013-03-14 02:44:00,
2013-03-13 22:47:00,35.4,24.8,29.12,WSW,248,1.1,1.6,65,0.00,,---,0.00,VWS V13.01,2013-03-14 02:47:00,
2013-03-13 22:48:00,35.4,24.8,29.12,WSW,248,1.1,1.6,65,0.00,,---,0.00,VWS V13.01,2013-03-14 02:48:00,
2013-03-13 22:49:00,35.4,24.8,29.12,WSW,248,0.0,1.1,65,0.00,,---,0.00,VWS V13.01,2013-03-14 02:49:00,
2013-03-13 22:52:00,35.4,24.8,29.12,WNW,292,2.7,2.7,65,0.00,,---,0.00,VWS V13.01,2013-03-14 02:52:00,
2013-03-13 22:53:00,35.4,24.8,29.12,WNW,292,2.7,2.7,65,0.00,,---,0.00,VWS V13.01,2013-03-14 02:53:00,
2013-03-13 22:54:00,35.4,24.8,29.12,WSW,248,2.7,2.7,65,0.00,,---,0.00,VWS V13.01,2013-03-14 02:54:00,
2013-03-13 22:57:00,35.2,24.7,29.12,WSW,248,2.0,2.7,65,0.00,,---,0.00,VWS V13.01,2013-03-14 02:57:00,
2013-03-13 22:58:00,35.1,24.5,29.12,West,270,2.9,2.9,65,0.00,,---,0.00,VWS V13.01,2013-03-14 02:58:00,
2013-03-13 22:59:00,35.1,24.5,29.12,WSW,248,3.1,3.1,65,0.00,,---,0.00,VWS V13.01,2013-03-14 02:59:00,
2013-03-13 23:03:00,35.1,24.5,29.12,WNW,292,3.4,3.6,65,0.00,,---,0.00,VWS V13.01,2013-03-14 03:03:00,
2013-03-13 23:04:00,35.1,24.5,29.12,WNW,292,3.4,3.4,65,0.00,,---,0.00,VWS V13.01,2013-03-14 03:04:00,
2013-03-13 23:08:00,35.1,24.5,29.12,SSW,202,1.1,2.5,65,0.00,,---,0.00,VWS V13.01,2013-03-14 03:08:00,
2013-03-13 23:09:00,35.1,24.5,29.12,SW,225,0.0,1.1,65,0.00,,---,0.00,VWS V13.01,2013-03-14 03:09:00,
2013-03-13 23:13:00,35.1,24.5,29.12,WSW,248,1.3,1.3,65,0.00,,---,0.00,VWS V13.01,2013-03-14 03:13:00,
2013-03-13 23:14:00,35.1,24.9,29.12,WSW,248,0.0,1.3,66,0.00,,---,0.00,VWS V13.01,2013-03-14 03:14:00,
2013-03-13 23:18:00,35.1,24.9,29.12,South,180,0.0,2.0,66,0.00,,---,0.00,VWS V13.01,2013-03-14 03:18:00,
2013-03-13 23:19:00,35.1,24.9,29.12,West,270,1.3,1.3,66,0.00,,---,0.00,VWS V13.01,2013-03-14 03:19:00,
2013-03-13 23:20:00,35.1,24.9,29.12,WSW,248,2.5,2.5,66,0.00,,---,0.00,VWS V13.01,2013-03-14 03:20:00,
2013-03-13 23:23:00,34.9,24.7,29.12,West,270,2.0,2.0,66,0.00,,---,0.00,VWS V13.01,2013-03-14 03:23:00,
2013-03-13 23:24:00,34.9,24.7,29.12,West,270,2.0,2.0,66,0.00,,---,0.00,VWS V13.01,2013-03-14 03:24:00,
2013-03-13 23:25:00,34.9,24.7,29.12,SSW,202,0.0,2.0,66,0.00,,---,0.00,VWS V13.01,2013-03-14 03:25:00,
2013-03-13 23:29:00,34.9,24.7,29.12,WSW,248,2.7,2.7,66,0.00,,---,0.00,VWS V13.01,2013-03-14 03:29:00,
2013-03-13 23:30:00,34.9,24.7,29.12,WNW,292,1.1,2.7,66,0.00,,---,0.00,VWS V13.01,2013-03-14 03:30:00,
2013-03-13 23:34:00,34.9,24.7,29.12,WSW,248,1.3,2.7,66,0.00,,---,0.00,VWS V13.01,2013-03-14 03:34:00,
2013-03-13 23:36:00,34.9,24.7,29.12,WNW,292,4.0,4.0,66,0.00,,---,0.00,VWS V13.01,2013-03-14 03:36:00,
2013-03-13 23:39:00,35.1,25.2,29.12,WNW,292,1.6,3.4,67,0.00,,---,0.00,VWS V13.01,2013-03-14 03:39:00,
2013-03-13 23:41:00,35.1,25.2,29.12,West,270,2.7,3.6,67,0.00,,---,0.00,VWS V13.01,2013-03-14 03:41:00,
2013-03-13 23:44:00,35.1,25.2,29.12,West,270,2.9,2.9,67,0.00,,---,0.00,VWS V13.01,2013-03-14 03:44:00,
2013-03-13 23:45:00,35.1,25.2,29.12,West,270,2.9,2.9,67,0.00,,---,0.00,VWS V13.01,2013-03-14 03:45:00,
2013-03-13 23:46:00,35.1,25.2,29.12,SSW,202,0.0,1.6,67,0.00,,---,0.00,VWS V13.01,2013-03-14 03:46:00,
2013-03-13 23:49:00,35.1,25.2,29.12,WSW,248,2.0,2.0,67,0.00,,---,0.00,VWS V13.01,2013-03-14 03:49:00,
2013-03-13 23:50:00,35.1,25.2,29.12,WSW,248,2.0,2.0,67,0.00,,---,0.00,VWS V13.01,2013-03-14 03:50:00,
2013-03-13 23:52:00,35.1,25.6,29.12,West,270,1.6,1.6,68,0.00,,---,0.00,VWS V13.01,2013-03-14 03:52:00,
2013-03-13 23:55:00,35.1,25.6,29.12,SSW,202,0.0,1.6,68,0.00,,---,0.00,VWS V13.01,2013-03-14 03:55:00,
2013-03-13 23:57:00,35.1,25.6,29.12,West,270,0.0,0.9,68,0.00,,---,0.00,VWS V13.01,2013-03-14 03:57:00,